Location: Planetariul Baia Mare
(47.6578°N, 23.5640°E)
Time: 11:19:52
(UTC+03:00)

OTV 5 (USA 277) - Visible Passes

Search period start: 22 August 2019 00:00
Search period end: 01 September 2019 00:00
Orbit: 305 x 329 km, 54.5° (Epoch: 20 August)

Date Brightness Start Highest point End Pass type
(mag) Time Alt. Az. Time Alt. Az. Time Alt. Az.
22 Aug ? 04:10:20 29° E 04:10:20 29° E 04:11:55 10° ESE visible
22 Aug ? 05:41:29 10° W 05:43:28 19° SW 05:45:25 10° S visible
23 Aug ? 04:26:31 10° SE 04:26:31 10° SE 04:26:33 10° SE visible
23 Aug ? 22:17:21 10° SW 22:17:22 10° SW 22:17:22 10° SW visible
24 Aug ? 20:59:04 10° SSE 21:00:29 13° SE 21:01:55 10° E visible
24 Aug ? 22:31:48 10° WSW 22:33:12 27° WSW 22:33:12 27° WSW visible
25 Aug ? 21:12:24 10° SSW 21:14:50 30° SE 21:17:16 10° ENE visible
25 Aug ? 22:46:36 10° W 22:48:20 28° WNW 22:48:20 28° WNW visible
26 Aug ? 21:26:37 10° SW 21:29:18 76° SSE 21:31:59 10° ENE visible
26 Aug ? 23:01:35 10° WNW 23:03:00 20° NW 23:03:00 20° NW visible
27 Aug ? 21:41:15 10° WSW 21:43:54 48° NNW 21:46:27 11° NE visible
27 Aug ? 23:16:37 10° NW 23:17:20 14° NW 23:17:20 14° NW visible
28 Aug ? 21:56:11 10° W 21:58:35 28° NNW 22:00:36 13° NE visible
29 Aug ? 22:11:13 10° WNW 22:13:21 21° N 22:14:37 15° NNE visible
30 Aug ? 20:50:47 10° W 20:53:20 35° NNW 20:55:52 10° NE visible
30 Aug ? 22:26:11 10° NW 22:28:11 18° N 22:28:34 18° N visible
31 Aug ? 21:05:47 10° WNW 21:08:04 24° NNW 21:10:21 10° NE visible
31 Aug ? 22:40:58 10° NW 22:42:28 18° NNW 22:42:28 18° NNW visible
